SWA702 KLAX-KASE

Flight info

Callsign SWA702
Flight time N/A
Altitude 35000
Route ORCKA5 LAS BAWER ERRDA LOYYD1
Aircraft B737/M-VGDW/C

Departure

Time 2026-05-04 05:54
Airport Los Angeles International Airport (KLAX)

Arrival

Time N/A
Airport Aspen-Pitkin County Airport (Sardy Field) (KASE)
Time Latitude Longitude Altitude Speed Heading
2026-05-04 05:28 33.94038 -118.40619 125 ft 0 kts 266°
2026-05-04 05:38 33.94038 -118.40614 125 ft 2 kts 267°
2026-05-04 05:38 33.94039 -118.40601 125 ft 0 kts 267°
2026-05-04 05:38 33.94041 -118.40587 124 ft 2 kts 243°
2026-05-04 05:38 33.94051 -118.40572 124 ft 2 kts 217°
2026-05-04 05:39 33.94063 -118.40564 124 ft 2 kts 193°
2026-05-04 05:39 33.94080 -118.40564 124 ft 0 kts 173°
2026-05-04 05:47 33.93920 -118.40540 124 ft 0 kts 168°
2026-05-04 05:47 33.93919 -118.40540 124 ft 0 kts 165°
2026-05-04 05:47 33.93913 -118.40479 124 ft 17 kts 84°
2026-05-04 05:48 33.93930 -118.40318 122 ft 20 kts 82°
2026-05-04 05:48 33.93941 -118.40209 121 ft 20 kts 83°
2026-05-04 05:48 33.93957 -118.40045 119 ft 20 kts 84°
2026-05-04 05:48 33.93974 -118.39880 116 ft 20 kts 83°
2026-05-04 05:49 33.93991 -118.39714 114 ft 20 kts 83°
2026-05-04 05:49 33.94008 -118.39549 111 ft 20 kts 83°
2026-05-04 05:49 33.94025 -118.39381 110 ft 20 kts 83°
2026-05-04 05:49 33.94042 -118.39219 108 ft 20 kts 83°
2026-05-04 05:51 33.94057 -118.38307 103 ft 7 kts 104°
2026-05-04 05:51 33.94066 -118.38172 102 ft 19 kts 82°
2026-05-04 05:52 33.94077 -118.38073 102 ft 14 kts 79°
2026-05-04 05:52 33.94074 -118.38028 102 ft 0 kts 122°
2026-05-04 05:52 33.94071 -118.38024 102 ft 3 kts 133°
2026-05-04 05:52 33.93998 -118.38009 102 ft 11 kts 214°
2026-05-04 05:53 33.93980 -118.38071 102 ft 0 kts 263°
2026-05-04 05:54 33.93544 -118.43391 1495 ft 210 kts 264°
2026-05-04 05:55 33.93361 -118.45104 2429 ft 210 kts 263°
2026-05-04 05:55 33.93123 -118.46832 3297 ft 213 kts 257°
2026-05-04 05:55 33.92428 -118.48441 3960 ft 228 kts 230°
2026-05-04 05:55 33.91159 -118.49599 4606 ft 241 kts 209°
2026-05-04 05:56 33.88991 -118.50372 5460 ft 257 kts 183°
2026-05-04 05:56 33.87781 -118.50214 5854 ft 268 kts 163°
2026-05-04 05:56 33.85823 -118.48438 7064 ft 270 kts 123°
2026-05-04 05:56 33.85233 -118.47115 7796 ft 266 kts 112°
2026-05-04 05:57 33.84773 -118.44968 8670 ft 269 kts 91°
2026-05-04 05:57 33.85202 -118.42820 9488 ft 273 kts 60°
2026-05-04 05:57 33.86509 -118.41152 10301 ft 278 kts 34°
2026-05-04 05:57 33.88276 -118.40195 10848 ft 292 kts 16°
2026-05-04 05:58 33.90233 -118.39674 11376 ft 306 kts 10°
2026-05-04 05:58 33.93130 -118.39085 12064 ft 326 kts 10°
2026-05-04 05:58 33.94637 -118.38676 12397 ft 336 kts 15°
2026-05-04 05:58 33.97348 -118.36867 13368 ft 346 kts 42°
2026-05-04 05:59 33.98373 -118.35455 13837 ft 352 kts 51°
2026-05-04 05:59 33.99716 -118.32977 14565 ft 358 kts 57°
2026-05-04 05:59 34.01407 -118.29510 15536 ft 364 kts 56°
2026-05-04 05:59 34.02729 -118.26898 16229 ft 368 kts 55°
2026-05-04 06:00 34.04108 -118.24303 16904 ft 372 kts 53°
2026-05-04 06:00 34.05053 -118.22578 17339 ft 374 kts 53°
2026-05-04 06:00 34.06514 -118.19961 17992 ft 378 kts 52°
2026-05-04 06:00 34.07996 -118.17339 18591 ft 383 kts 52°
2026-05-04 06:01 34.09510 -118.14669 19210 ft 388 kts 52°
2026-05-04 06:01 34.11038 -118.11977 19836 ft 392 kts 52°
2026-05-04 06:03 34.22799 -117.91121 23909 ft 424 kts 51°
2026-05-04 06:03 34.23896 -117.89166 24234 ft 427 kts 51°
2026-05-04 06:05 34.35809 -117.67896 27564 ft 452 kts 50°
2026-05-04 06:05 34.39490 -117.61649 28447 ft 459 kts 48°
2026-05-04 06:05 34.41365 -117.58534 28902 ft 462 kts 48°
2026-05-04 06:06 34.43921 -117.54295 29468 ft 467 kts 48°
2026-05-04 06:06 34.45837 -117.51109 29930 ft 470 kts 48°
2026-05-04 06:06 34.47782 -117.47866 30366 ft 473 kts 48°
2026-05-04 06:06 34.49070 -117.45713 30652 ft 475 kts 48°
2026-05-04 06:07 34.51659 -117.41367 31474 ft 472 kts 48°
2026-05-04 06:07 34.52955 -117.39185 31870 ft 472 kts 48°
2026-05-04 06:07 34.54871 -117.35956 32415 ft 471 kts 48°
2026-05-04 06:07 34.56773 -117.32746 32872 ft 472 kts 49°
2026-05-04 06:08 34.59333 -117.28423 33516 ft 471 kts 49°
2026-05-04 06:08 34.60613 -117.26258 33885 ft 470 kts 49°
2026-05-04 06:08 34.62516 -117.23036 34358 ft 470 kts 49°
2026-05-04 06:08 34.64421 -117.19810 34904 ft 468 kts 49°
2026-05-04 06:09 34.66975 -117.15485 35050 ft 475 kts 49°
2026-05-04 06:11 34.81820 -116.90215 35056 ft 476 kts 48°
2026-05-04 06:13 34.98470 -116.63918 35022 ft 465 kts 40°
2026-05-04 06:14 35.14048 -116.43700 35014 ft 468 kts 40°
2026-05-04 06:15 35.17719 -116.38847 35014 ft 466 kts 40°
2026-05-04 06:15 35.22857 -116.32028 35025 ft 465 kts 40°
2026-05-04 06:16 35.27182 -116.26278 35031 ft 466 kts 40°
2026-05-04 06:16 35.30853 -116.21386 35033 ft 466 kts 40°
2026-05-04 06:17 35.35255 -116.15511 35030 ft 466 kts 40°
2026-05-04 06:17 35.40366 -116.08679 35032 ft 466 kts 40°
2026-05-04 06:18 35.43918 -116.03923 35038 ft 465 kts 40°
2026-05-04 06:20 35.62142 -115.79413 35062 ft 464 kts 40°
2026-05-04 06:21 35.72281 -115.65542 35073 ft 466 kts 40°
2026-05-04 06:22 35.76576 -115.59608 35079 ft 465 kts 40°
2026-05-04 06:25 36.06972 -115.17416 35064 ft 465 kts 40°
2026-05-04 06:26 36.10123 -115.12563 35058 ft 470 kts 46°